User: anonymous   Login
Location: Columbia
(38.9520°N, 92.3340°W)
Time: 23:48:22
(UTC-05:00)
Language:

Iridium 22 - Orbit

View from above orbital plane
View from above orbital plane
View from above satellite
View from above satellite

Ground track
Ground track

The orbit data is extracted from the following two-line orbital elements,

1 24907U 97043E   18114.56703907 +.00000107 +00000-0 +31292-4 0  9996
2 24907 086.3933 126.0237 0002290 091.5316 268.6142 14.34243236082477
Epoch (UTC): 24 April 2018 13:36:32
Eccentricity: 0.0002290
inclination: 86.3933°
perigee height: 776 km
apogee height: 779 km
right ascension of ascending node: 126.0237°
argument of perigee: 91.5316°
revolutions per day: 14.34243236
mean anomaly at epoch: 268.6142°
orbit number at epoch: 8247

The dashed part of the orbit path shows where the satellite is in the earth's shadow,  

DLR